{"data":{"norad_id":87561,"epoch":"2026-05-22T21:45:32.855328Z","epoch_age_seconds":256208,"freshness":"STALE","line1":"1 87561U          26142.90663027 -.00000157  00000+0 -88927-3 0  9996","line2":"2 87561 101.9847 200.8221 0173274 358.1898 185.8968 12.32153976562287","mean_motion":12.32153976,"eccentricity":0.0173274,"inclination_deg":101.9847,"raan_deg":200.8221,"arg_perigee_deg":358.1898,"mean_anomaly_deg":185.8968,"bstar":-0.00088927,"rev_number":56228,"period_min":116.86851059595,"perigee_km":1402.8382313561,"apogee_km":1677.2410593658,"semimajor_km":7918.176645361,"source":"CELESTRAK","updated_at":"2026-05-25T13:38:11.672975Z"}}